YMA7608 RJOB-RKPC

Flight info

Callsign YMA7608
Flight time 1h 7m
Altitude 32000
Route RJOB WASYU V28 MARCO Y284 KATTA V28 DGC A595 TAMNA RKPC
Aircraft B738/M-VGDW/C

Departure

Time 2026-04-30 08:59
Airport Okayama Momotaro Airport (RJOB)

Arrival

Time 2026-04-30 10:06
Airport Jeju International Airport (RKPC)
Time Latitude Longitude Altitude Speed Heading
2026-04-30 08:10 34.76050 133.85533 810 ft 0 kts 329°
2026-04-30 08:49 34.76049 133.85535 810 ft 1 kts 329°
2026-04-30 08:49 34.76036 133.85544 809 ft 2 kts 329°
2026-04-30 08:50 34.76023 133.85553 808 ft 2 kts 329°
2026-04-30 08:50 34.76010 133.85564 807 ft 2 kts 329°
2026-04-30 08:50 34.75997 133.85573 806 ft 2 kts 329°
2026-04-30 08:50 34.75984 133.85582 805 ft 2 kts 329°
2026-04-30 08:51 34.75972 133.85591 804 ft 2 kts 329°
2026-04-30 08:51 34.75959 133.85600 803 ft 2 kts 329°
2026-04-30 08:51 34.75946 133.85609 801 ft 1 kts 329°
2026-04-30 08:51 34.75938 133.85616 801 ft 2 kts 304°
2026-04-30 08:52 34.75933 133.85634 800 ft 2 kts 264°
2026-04-30 08:52 34.75935 133.85645 799 ft 1 kts 240°
2026-04-30 08:52 34.75939 133.85652 799 ft 0 kts 239°
2026-04-30 08:54 34.75937 133.85648 799 ft 3 kts 239°
2026-04-30 08:54 34.75905 133.85584 800 ft 10 kts 239°
2026-04-30 08:54 34.75869 133.85509 801 ft 9 kts 239°
2026-04-30 08:55 34.75834 133.85439 802 ft 9 kts 239°
2026-04-30 08:55 34.75797 133.85362 802 ft 11 kts 239°
2026-04-30 08:55 34.75752 133.85271 801 ft 14 kts 239°
2026-04-30 08:55 34.75697 133.85162 800 ft 15 kts 239°
2026-04-30 08:56 34.75646 133.85053 800 ft 14 kts 240°
2026-04-30 08:56 34.75595 133.84950 801 ft 14 kts 238°
2026-04-30 08:56 34.75538 133.84836 800 ft 17 kts 239°
2026-04-30 08:56 34.75474 133.84705 801 ft 17 kts 240°
2026-04-30 08:57 34.75415 133.84586 804 ft 15 kts 239°
2026-04-30 08:57 34.75351 133.84456 806 ft 18 kts 238°
2026-04-30 08:57 34.75288 133.84326 806 ft 17 kts 239°
2026-04-30 08:57 34.75221 133.84193 801 ft 19 kts 238°
2026-04-30 08:58 34.75126 133.84076 795 ft 20 kts 180°
2026-04-30 08:58 34.75029 133.84128 797 ft 10 kts 143°
2026-04-30 08:58 34.75028 133.84190 800 ft 9 kts 59°
2026-04-30 08:58 34.75230 133.84601 804 ft 105 kts 59°
2026-04-30 08:59 34.75752 133.85663 913 ft 175 kts 59°
2026-04-30 08:59 34.76339 133.86819 1835 ft 163 kts 62°
2026-04-30 08:59 34.76907 133.88182 2400 ft 199 kts 77°
2026-04-30 08:59 34.76965 133.89918 2990 ft 212 kts 104°
2026-04-30 09:00 34.76275 133.91441 3580 ft 208 kts 134°
2026-04-30 09:00 34.75036 133.92310 4177 ft 210 kts 165°
2026-04-30 09:00 34.73579 133.92239 4768 ft 218 kts 197°
2026-04-30 09:00 34.72215 133.91382 5383 ft 237 kts 214°
2026-04-30 09:01 34.71122 133.89716 6142 ft 271 kts 230°
2026-04-30 09:01 34.70014 133.87820 6844 ft 273 kts 230°
2026-04-30 09:01 34.68940 133.85986 7556 ft 268 kts 232°
2026-04-30 09:01 34.67867 133.84131 8271 ft 267 kts 232°
2026-04-30 09:02 34.65718 133.80479 9689 ft 267 kts 232°
2026-04-30 09:02 34.64634 133.78648 10386 ft 275 kts 234°
2026-04-30 09:02 34.63489 133.76694 11159 ft 300 kts 235°
2026-04-30 09:03 34.62220 133.74559 11914 ft 324 kts 233°
2026-04-30 09:03 34.60884 133.72304 12589 ft 334 kts 234°
2026-04-30 09:03 34.59526 133.69978 13227 ft 337 kts 235°
2026-04-30 09:03 34.58188 133.67673 13820 ft 339 kts 236°
2026-04-30 09:04 34.56858 133.65324 14360 ft 340 kts 235°
2026-04-30 09:04 34.55528 133.62955 14907 ft 341 kts 236°
2026-04-30 09:04 34.54287 133.60503 15356 ft 343 kts 247°
2026-04-30 09:04 34.53393 133.57797 15892 ft 342 kts 248°
2026-04-30 09:05 34.52499 133.55131 16382 ft 345 kts 248°
2026-04-30 09:05 34.51599 133.52411 16887 ft 346 kts 249°
2026-04-30 09:05 34.50739 133.49715 17348 ft 347 kts 249°
2026-04-30 09:05 34.49852 133.47026 17800 ft 347 kts 249°
2026-04-30 09:06 34.48959 133.44299 18272 ft 345 kts 249°
2026-04-30 09:06 34.48087 133.41606 18737 ft 349 kts 249°
2026-04-30 09:06 34.47253 133.38827 19214 ft 350 kts 250°
2026-04-30 09:06 34.46784 133.35944 19638 ft 352 kts 262°
2026-04-30 09:07 34.46538 133.33006 20094 ft 352 kts 262°
2026-04-30 09:07 34.46295 133.30041 20545 ft 356 kts 262°
2026-04-30 09:07 34.46038 133.27109 20967 ft 355 kts 261°
2026-04-30 09:07 34.45799 133.24120 21392 ft 359 kts 261°
2026-04-30 09:08 34.45552 133.21077 21816 ft 359 kts 262°
2026-04-30 09:08 34.45320 133.18089 22222 ft 359 kts 262°
2026-04-30 09:08 34.45070 133.15073 22624 ft 360 kts 260°
2026-04-30 09:08 34.44817 133.12073 23068 ft 364 kts 262°
2026-04-30 09:09 34.44568 133.09010 23469 ft 364 kts 261°
2026-04-30 09:09 34.44316 133.05963 23865 ft 367 kts 261°
2026-04-30 09:09 34.44068 133.02884 24256 ft 370 kts 261°
2026-04-30 09:09 34.43826 132.99791 24648 ft 369 kts 261°
2026-04-30 09:10 34.43602 132.96732 25034 ft 373 kts 261°
2026-04-30 09:10 34.43383 132.93590 25425 ft 374 kts 259°
2026-04-30 09:10 34.42590 132.90655 25787 ft 367 kts 240°
2026-04-30 09:10 34.41320 132.87982 26195 ft 369 kts 239°
2026-04-30 09:11 34.40015 132.85266 26542 ft 371 kts 239°
2026-04-30 09:11 34.38760 132.82555 26892 ft 375 kts 240°
2026-04-30 09:11 34.37483 132.79762 27255 ft 379 kts 239°
2026-04-30 09:11 34.36188 132.76982 27629 ft 378 kts 239°
2026-04-30 09:12 34.34910 132.74249 27942 ft 374 kts 240°
2026-04-30 09:12 34.33650 132.71480 28290 ft 375 kts 240°
2026-04-30 09:12 34.32386 132.68715 28649 ft 382 kts 239°
2026-04-30 09:12 34.31100 132.65897 28957 ft 385 kts 239°
2026-04-30 09:13 34.29806 132.63043 29335 ft 386 kts 239°
2026-04-30 09:13 34.28507 132.60200 29679 ft 386 kts 239°
2026-04-30 09:13 34.27217 132.57400 30026 ft 386 kts 239°
2026-04-30 09:13 34.25898 132.54564 30338 ft 388 kts 239°
2026-04-30 09:14 34.24579 132.51691 30670 ft 388 kts 240°
2026-04-30 09:14 34.23288 132.48840 30963 ft 390 kts 239°
2026-04-30 09:14 34.21970 132.45973 31308 ft 394 kts 239°
2026-04-30 09:14 34.20616 132.43047 31640 ft 399 kts 240°
2026-04-30 09:15 34.19313 132.40118 31940 ft 401 kts 240°
2026-04-30 09:15 34.17954 132.37108 31977 ft 409 kts 239°
2026-04-30 09:15 34.15240 132.31154 31999 ft 403 kts 239°
2026-04-30 09:16 34.12688 132.25073 31990 ft 401 kts 237°
2026-04-30 09:16 34.09881 132.19293 32030 ft 401 kts 239°
2026-04-30 09:17 34.07481 132.13222 31993 ft 404 kts 252°
2026-04-30 09:17 34.06362 132.06541 32003 ft 408 kts 254°
2026-04-30 09:18 34.05286 132.00179 32016 ft 405 kts 254°
2026-04-30 09:18 34.04234 131.93453 31993 ft 407 kts 255°
2026-04-30 09:19 34.03112 131.86809 31954 ft 403 kts 254°
2026-04-30 09:19 34.02128 131.80098 31933 ft 405 kts 256°
2026-04-30 09:20 34.01114 131.73508 31914 ft 402 kts 253°
2026-04-30 09:20 34.00045 131.66864 31899 ft 401 kts 253°
2026-04-30 09:21 33.98908 131.60730 31939 ft 391 kts 253°
2026-04-30 09:21 33.97820 131.54658 31933 ft 392 kts 254°
2026-04-30 09:22 33.96768 131.48503 31962 ft 393 kts 255°
2026-04-30 09:22 33.95658 131.42108 31969 ft 396 kts 254°
2026-04-30 09:23 33.94553 131.35631 31943 ft 395 kts 255°
2026-04-30 09:23 33.93585 131.29092 31945 ft 398 kts 257°
2026-04-30 09:24 33.92817 131.25943 32000 ft 391 kts 245°
2026-04-30 09:24 33.91801 131.22903 31965 ft 392 kts 246°
2026-04-30 09:24 33.89777 131.16853 31969 ft 391 kts 246°
2026-04-30 09:25 33.87847 131.10696 31989 ft 394 kts 247°
2026-04-30 09:25 33.86011 131.04579 31962 ft 389 kts 249°
2026-04-30 09:26 33.84345 130.98407 31956 ft 391 kts 247°
2026-04-30 09:26 33.82515 130.92230 31979 ft 390 kts 248°
2026-04-30 09:27 33.80737 130.86121 31957 ft 389 kts 248°
2026-04-30 09:27 33.79091 130.79939 31917 ft 392 kts 251°
2026-04-30 09:28 33.77411 130.73746 31959 ft 390 kts 247°
2026-04-30 09:28 33.75548 130.67647 31933 ft 391 kts 248°
2026-04-30 09:29 33.73750 130.61461 31934 ft 391 kts 249°
2026-04-30 09:29 33.72042 130.55478 31947 ft 390 kts 249°
2026-04-30 09:30 33.70282 130.49350 31930 ft 391 kts 249°
2026-04-30 09:30 33.68590 130.43153 31918 ft 390 kts 249°
2026-04-30 09:31 33.67501 130.36783 31897 ft 405 kts 269°
2026-04-30 09:31 33.68381 130.30104 31930 ft 406 kts 271°
2026-04-30 09:32 33.69209 130.23402 31926 ft 405 kts 271°
2026-04-30 09:32 33.70026 130.16733 31935 ft 406 kts 271°
2026-04-30 09:33 33.70856 130.10056 31918 ft 405 kts 271°
2026-04-30 09:33 33.71652 130.03374 31896 ft 406 kts 270°
2026-04-30 09:34 33.72382 129.96664 31922 ft 403 kts 270°
2026-04-30 09:34 33.73134 129.90021 31928 ft 406 kts 271°
2026-04-30 09:35 33.73946 129.83344 31966 ft 406 kts 271°
2026-04-30 09:35 33.74686 129.76643 31934 ft 395 kts 261°
2026-04-30 09:36 33.73863 129.70172 31945 ft 393 kts 256°
2026-04-30 09:36 33.73059 129.63693 31955 ft 392 kts 257°
2026-04-30 09:37 33.72297 129.57217 31953 ft 393 kts 257°
2026-04-30 09:37 33.71607 129.50703 31898 ft 393 kts 258°
2026-04-30 09:38 33.70895 129.44191 31904 ft 393 kts 257°
2026-04-30 09:38 33.70152 129.37680 31907 ft 392 kts 258°
2026-04-30 09:39 33.69549 129.31168 31937 ft 396 kts 258°
2026-04-30 09:39 33.69004 129.24628 31917 ft 392 kts 256°
2026-04-30 09:40 33.68204 129.18135 31923 ft 394 kts 256°
2026-04-30 09:40 33.67388 129.11629 31918 ft 393 kts 256°
2026-04-30 09:41 33.66619 129.05136 31917 ft 392 kts 257°
2026-04-30 09:41 33.65915 128.98669 31913 ft 393 kts 257°
2026-04-30 09:42 33.65205 128.92156 31918 ft 394 kts 256°
2026-04-30 09:42 33.64425 128.85722 31914 ft 392 kts 256°
2026-04-30 09:43 33.63687 128.79215 31915 ft 392 kts 257°
2026-04-30 09:43 33.62937 128.72761 31922 ft 393 kts 256°
2026-04-30 09:44 33.62188 128.66287 31908 ft 392 kts 257°
2026-04-30 09:44 33.61427 128.59795 31931 ft 393 kts 256°
2026-04-30 09:45 33.60678 128.53366 31905 ft 393 kts 256°
2026-04-30 09:45 33.59934 128.46912 31929 ft 392 kts 256°
2026-04-30 09:46 33.59179 128.40462 31938 ft 392 kts 256°
2026-04-30 09:46 33.58637 128.33971 31931 ft 397 kts 265°
2026-04-30 09:47 33.59366 128.30669 31437 ft 422 kts 281°
2026-04-30 09:47 33.59880 128.27310 30508 ft 400 kts 260°
2026-04-30 09:47 33.59224 128.24193 30063 ft 380 kts 245°
2026-04-30 09:47 33.58380 128.21239 29625 ft 381 kts 248°
2026-04-30 09:48 33.57646 128.18161 28843 ft 389 kts 250°
2026-04-30 09:48 33.57019 128.15042 28165 ft 382 kts 252°
2026-04-30 09:48 33.56485 128.11977 27758 ft 378 kts 253°
2026-04-30 09:48 33.55992 128.08876 27294 ft 377 kts 253°
2026-04-30 09:49 33.55538 128.05778 26835 ft 378 kts 255°
2026-04-30 09:49 33.55114 128.02693 26375 ft 378 kts 255°
2026-04-30 09:49 33.54739 127.99570 25535 ft 382 kts 256°
2026-04-30 09:49 33.54370 127.96488 24873 ft 371 kts 256°
2026-04-30 09:50 33.53988 127.93470 24399 ft 365 kts 256°
2026-04-30 09:50 33.53630 127.90467 23980 ft 369 kts 257°
2026-04-30 09:50 33.53292 127.87408 23464 ft 371 kts 257°
2026-04-30 09:50 33.52948 127.84360 22673 ft 365 kts 257°
2026-04-30 09:51 33.52600 127.81411 22217 ft 359 kts 257°
2026-04-30 09:51 33.52241 127.78461 21792 ft 361 kts 257°
2026-04-30 09:51 33.51890 127.75503 21309 ft 360 kts 258°
2026-04-30 09:51 33.51551 127.72503 20522 ft 362 kts 258°
2026-04-30 09:52 33.51212 127.69574 19931 ft 358 kts 258°
2026-04-30 09:52 33.50863 127.66644 19448 ft 355 kts 259°
2026-04-30 09:52 33.50540 127.63715 18684 ft 358 kts 259°
2026-04-30 09:52 33.50210 127.60783 18210 ft 355 kts 259°
2026-04-30 09:53 33.49905 127.58015 17808 ft 357 kts 259°
2026-04-30 09:53 33.49559 127.55080 17052 ft 359 kts 259°
2026-04-30 09:53 33.49213 127.52169 16530 ft 352 kts 259°
2026-04-30 09:53 33.48862 127.49277 15767 ft 354 kts 260°
2026-04-30 09:54 33.48545 127.46393 15263 ft 343 kts 261°
2026-04-30 09:54 33.48224 127.43585 14801 ft 346 kts 260°
2026-04-30 09:54 33.47899 127.40749 14207 ft 343 kts 260°
2026-04-30 09:54 33.47571 127.37927 13646 ft 346 kts 261°
2026-04-30 09:55 33.47279 127.35107 13098 ft 338 kts 261°
2026-04-30 09:55 33.47129 127.32310 12528 ft 341 kts 276°
2026-04-30 09:55 33.47690 127.29575 12183 ft 340 kts 282°
2026-04-30 09:55 33.48293 127.26820 11555 ft 340 kts 282°
2026-04-30 09:56 33.48882 127.24113 11016 ft 335 kts 282°
2026-04-30 09:56 33.49445 127.21491 10666 ft 309 kts 282°
2026-04-30 09:56 33.49961 127.19107 10428 ft 284 kts 282°
2026-04-30 09:56 33.50455 127.16827 10161 ft 283 kts 281°
2026-04-30 09:57 33.50910 127.14563 9887 ft 281 kts 281°
2026-04-30 09:57 33.51375 127.12282 9552 ft 281 kts 282°
2026-04-30 09:57 33.51859 127.10029 9279 ft 278 kts 282°
2026-04-30 09:57 33.52326 127.07784 8970 ft 280 kts 282°
2026-04-30 09:58 33.52788 127.05510 8682 ft 278 kts 282°
2026-04-30 09:58 33.53240 127.03284 8368 ft 275 kts 282°
2026-04-30 09:58 33.53695 127.01109 8112 ft 267 kts 283°
2026-04-30 09:58 33.54158 126.98931 7781 ft 265 kts 283°
2026-04-30 09:59 33.55024 126.94728 7219 ft 256 kts 283°
2026-04-30 09:59 33.55850 126.90652 6617 ft 249 kts 284°
2026-04-30 10:00 33.56658 126.86665 6020 ft 240 kts 285°
2026-04-30 10:00 33.57051 126.84724 5778 ft 240 kts 285°
2026-04-30 10:01 33.57852 126.80919 5284 ft 231 kts 286°
2026-04-30 10:01 33.58250 126.79048 5029 ft 227 kts 287°
2026-04-30 10:01 33.58617 126.77241 4795 ft 225 kts 286°
2026-04-30 10:02 33.59352 126.73642 4289 ft 219 kts 287°
2026-04-30 10:02 33.59723 126.71870 4076 ft 215 kts 287°
2026-04-30 10:02 33.60068 126.70139 3827 ft 213 kts 287°
2026-04-30 10:02 33.60381 126.68391 3528 ft 213 kts 276°
2026-04-30 10:03 33.59899 126.66716 3293 ft 217 kts 244°
2026-04-30 10:03 33.59174 126.65157 3023 ft 212 kts 244°
2026-04-30 10:03 33.58462 126.63651 2780 ft 206 kts 244°
2026-04-30 10:03 33.57759 126.62174 2501 ft 198 kts 244°
2026-04-30 10:04 33.57080 126.60772 2233 ft 191 kts 244°
2026-04-30 10:04 33.56414 126.59428 1958 ft 183 kts 243°
2026-04-30 10:04 33.55772 126.58154 1905 ft 177 kts 243°
2026-04-30 10:04 33.55129 126.56894 1795 ft 174 kts 243°
2026-04-30 10:05 33.54514 126.55682 1515 ft 166 kts 243°
2026-04-30 10:05 33.53915 126.54516 1250 ft 160 kts 243°
2026-04-30 10:05 33.53339 126.53401 992 ft 154 kts 242°
2026-04-30 10:05 33.52794 126.52322 736 ft 151 kts 242°
2026-04-30 10:06 33.52248 126.51243 482 ft 151 kts 242°
2026-04-30 10:06 33.51701 126.50178 228 ft 150 kts 240°
2026-04-30 10:06 33.51153 126.49121 74 ft 142 kts 240°
2026-04-30 10:06 33.50856 126.48525 67 ft 47 kts 242°
2026-04-30 10:07 33.50699 126.48271 72 ft 18 kts 222°
2026-04-30 10:07 33.50605 126.48191 78 ft 14 kts 208°
2026-04-30 10:07 33.50530 126.48177 82 ft 9 kts 142°
2026-04-30 10:07 33.50514 126.48235 83 ft 8 kts 83°
2026-04-30 10:08 33.50548 126.48312 81 ft 13 kts 59°
2026-04-30 10:08 33.50606 126.48427 79 ft 17 kts 58°
2026-04-30 10:08 33.50673 126.48555 78 ft 18 kts 58°
2026-04-30 10:08 33.50738 126.48684 76 ft 18 kts 61°
2026-04-30 10:09 33.50791 126.48792 75 ft 12 kts 63°
2026-04-30 10:09 33.50764 126.48868 77 ft 9 kts 149°
2026-04-30 10:09 33.50722 126.48898 80 ft 5 kts 150°
2026-04-30 10:09 33.50701 126.48910 81 ft 2 kts 168°
2026-04-30 10:10 33.50670 126.48890 82 ft 6 kts 232°
2026-04-30 10:10 33.50639 126.48856 82 ft 5 kts 173°
2026-04-30 10:10 33.50613 126.48879 83 ft 4 kts 142°
2026-04-30 10:10 33.50588 126.48898 84 ft 3 kts 148°
2026-04-30 10:11 33.50571 126.48910 84 ft 2 kts 148°
2026-04-30 10:11 33.50566 126.48915 85 ft 0 kts 148°